Location: Tel Aviv
(32.0670°N, 34.7670°E)
Time: 19:46:35
(UTC+03:00)

Transit 2A - Pass Details

Date: 02 June 2024
Orbit: 593 x 959 km, 66.7° (Epoch: 14 June)

Event Time Altitude Azimuth Distance (km) Brightness Sun altitude
Rises 21:28:20 0° 254° (WSW) 2,936 9.4 -19.0°
Reaches altitude 10° 21:31:42 10° 281° (W) 2,096 9.1 -19.5°
Maximum altitude 21:34:03 14° 311° (NW) 1,919 9.2 -19.9°
Drops below altitude 10° 21:36:30 10° 340° (NNW) 2,208 9.3 -20.3°
Sets 21:40:15 0° 7° (N) 3,228 9.8 -20.8°
